Find Starlink 38139

NORAD ID: 100236 Int'l Des: 2026-177 Owner: SPXS Country: US Constellation: starlink operational

Aktuelle Ansicht

3D-Globus wird geladen...

About Starlink 38139

Starlink 38139 (NORAD 100236) is a starlink constellation satellite launched Aug 4, 2026 by SPXS of US. with a mass of 575.00 kg.

Nächste Überflüge

Passes for default location (London). Set your location on the main map for personalized predictions.

Höhenverlauf

Loading altitude history...

Zweizeiliger Elementsatz

1 A0236U 26177Z 26237.13564200 .00191609 00000-0 12576-2 0 9994
2 A0236 97.2849 287.1461 0003859 338.8504 21.2601 15.75171294 3240
Epoch: 25. Aug. 2026 • Age: 23 hours

Aktueller Status

Höhe 346.3 km
Apogäum / Perigäum N/A
Geschwindigkeit 7.70 km/s
Subsatellitenpunkt -13.00°S, 75.53°W
Startdatum 4. Aug. 2026
Alter 21 days
Typ internet

Technische Details

Klassifizierung Payload
Masse 575.00 kg
Trockenmasse 530.00 kg
Gesamtmasse 575.00 kg
Länge 0.30 m
Durchmesser 4.10 m
Spannweite 29.00 m
Form Box + pan
Hersteller SPXS
Bus-Typ Starlink V2MO
Phasenstatus In Orbit
Besitzer/Staat SPXS/US

Most Searched